TimeCDT,TemperatureF,Dew PointF,Humidity,Sea Level PressureIn,VisibilityMPH,Wind Direction,Wind SpeedMPH,Gust SpeedMPH,PrecipitationIn,Events,Conditions,WindDirDegrees,DateUTC
12:52 AM,25.0,14.0,63,30.08,10.0,WNW,18.4,-,N/A,,Overcast,290,2013-03-20 05:52:00
1:52 AM,21.9,12.0,66,30.09,10.0,WNW,19.6,28.8,N/A,,Clear,290,2013-03-20 06:52:00
2:52 AM,19.9,10.9,68,30.09,10.0,WNW,13.8,-,N/A,,Clear,290,2013-03-20 07:52:00
3:52 AM,17.1,8.1,68,30.10,10.0,WNW,20.7,-,N/A,,Clear,300,2013-03-20 08:52:00
4:52 AM,15.1,7.0,70,30.10,10.0,WNW,16.1,-,N/A,,Clear,290,2013-03-20 09:52:00
5:52 AM,14.0,6.1,71,30.12,10.0,WNW,17.3,24.2,N/A,,Clear,300,2013-03-20 10:52:00
6:52 AM,12.9,5.0,71,30.14,10.0,WNW,17.3,-,N/A,,Clear,290,2013-03-20 11:52:00
7:52 AM,12.9,3.9,67,30.14,10.0,WNW,18.4,24.2,N/A,,Clear,290,2013-03-20 12:52:00
8:52 AM,14.0,3.0,62,30.15,10.0,WNW,20.7,29.9,N/A,,Clear,300,2013-03-20 13:52:00
9:52 AM,16.0,3.9,59,30.14,10.0,WNW,20.7,-,N/A,,Clear,300,2013-03-20 14:52:00
10:52 AM,18.0,6.1,60,30.14,10.0,WNW,19.6,29.9,N/A,,Clear,300,2013-03-20 15:52:00
11:52 AM,19.0,7.0,59,30.14,10.0,WNW,20.7,29.9,N/A,,Partly Cloudy,300,2013-03-20 16:52:00
12:52 PM,21.0,9.0,60,30.13,10.0,WNW,17.3,26.5,N/A,,Mostly Cloudy,290,2013-03-20 17:52:00
1:52 PM,21.9,10.0,60,30.10,10.0,WNW,19.6,29.9,N/A,,Overcast,290,2013-03-20 18:52:00
2:52 PM,21.9,9.0,58,30.08,10.0,WNW,20.7,32.2,N/A,,Overcast,290,2013-03-20 19:52:00
3:52 PM,23.0,10.0,58,30.07,10.0,West,21.9,-,N/A,,Overcast,280,2013-03-20 20:52:00
4:52 PM,23.0,10.9,60,30.06,10.0,West,20.7,27.6,N/A,,Overcast,270,2013-03-20 21:52:00
5:52 PM,21.9,10.0,60,30.08,10.0,West,17.3,25.3,N/A,,Overcast,280,2013-03-20 22:52:00
6:52 PM,21.9,10.0,60,30.08,10.0,NW,17.3,25.3,N/A,,Overcast,320,2013-03-20 23:52:00
7:52 PM,19.9,9.0,62,30.09,10.0,NW,18.4,28.8,N/A,,Overcast,310,2013-03-21 00:52:00
9:52 PM,19.0,9.0,65,30.09,10.0,NW,18.4,23.0,N/A,,Overcast,310,2013-03-21 02:52:00
10:52 PM,18.0,9.0,68,30.09,10.0,NW,17.3,24.2,N/A,,Mostly Cloudy,320,2013-03-21 03:52:00
11:52 PM,16.0,10.0,77,30.09,10.0,NW,9.2,-,N/A,,Partly Cloudy,310,2013-03-21 04:52:00